Location: Aula-Vintri
(58.3875°N, 22.4322°E)
Time: 23:47:42
(UTC+00:00)

COSMOS 2406 - Pass Details

Date: 13 October 2019
Orbit: 842 x 865 km, 71.0° (Epoch: 14 November)

Event Time Altitude Azimuth Distance (km) Brightness Sun altitude
Rises 17:59:30 0° 322° (NW) 3,462 7.3 -20.0°
Reaches altitude 10° 18:02:06 10° 315° (NW) 2,520 6.6 -20.3°
Maximum altitude 18:07:26 39° 248° (WSW) 1,272 4.5 -21.0°
Drops below altitude 10° 18:12:43 10° 182° (S) 2,498 5.5 -21.6°
Enters shadow 18:13:18 - 180° (S) 2,702 5.6 -21.7°
